sat.trackr.live / text

‹ back to catalog

UNKNOWN

NORAD 81775

UNKNOWN UNKNOWN UNKNOWN

§ Identity

Operator
Country
Launch date
Launch site
Launch vehicle
Mass (kg)
RCS (m²)

External: N2YO · Heavens-Above

§ Orbital elements

Epoch: 2026-05-24T02:22:47.633952Z

Period
99.79 min
Inclination
82.9160°
Eccentricity
0.0020061
Mean motion
14.43016196 rev/d
Perigee alt
734.3 km
Apogee alt
762.8 km
Semi-major
7,126.7 km
B*
1.2776e-3
RAAN
89.4648°
Arg perigee
91.7265°
Mean anomaly
268.6227°
Rev number
64,867

§ Raw data

UNKNOWN1 81775U          26144.09916243  .00004306  00000+0  12776-2 0  99962 81775  82.9160  89.4648 0020061  91.7265 268.6227 14.43016196648673

JSON: /api/v1/satellites/81775 · /tle

For live sub-satellite position, see the globe view (requires WebGL).

§ Visibility from observer

Set your observer location to see the next 7 days of passes ≥ 10°. The values pass through the URL so the page stays shareable.

No JS? Fill the form by hand. The geolocation button needs JavaScript.